Milsons Point Real Estate, NSW, 2061 North Sydney

Thinking about buying in Milsons Point? Now could not be a better time, with a whopping 3207 properties either residential or commercial there's certainly plenty to choose from.

The average property price for this area is $3,050,000 with prices in this suburb ranging from $432,000 to $6,480,000.

Distance to the coast is 0 Km.

Milsons Point Real Estate Market Outlook

Consistent high demand relative to supply is a key feature in Milsons Point driving regular price increases. Recent rapid price increases however may constrain future growth by limiting demand. High average incomes in Milsons Point ensure a focus on quality with a commensurate high entry price under constant demand. Competition for available quality housing is intense with multiple offers likely to be made in excess of asking prices. The high percentage of professional people in Milsons Point classifies the area as "gentrified". This implies high demand for quality housing, generally of larger than average size. Price growth is ensured even where the state affordability index is negatively impacting other areas. Medium density in Milsons Point necessitates a mix of lifestyle options for housing, shops, open areas, and facilties. Where this is available, demand is high and growth ensured. High industry presence in the wider area is a double-edged sword. While local employment options are high, the presence of industrial buildings may negatively impact lifestyle perception. Demand from first home buyers and investors however ensures good price growth.

About

Properties For Sale

RayWhite UNIT 1201, 55 LAVENDER ST, MILSONS POINT, NSW, 2061 3 2 2 Auction
theagency UNIT 9, 1 NORTHCLIFF ST, MILSONS POINT, NSW, 2061 3 3 2 Contact agent

Local Schools


None within suburb boundary

(While the above schools are located with the suburb of Milsons Point there may also be nearby schools whose catchments cover this suburb)

Local Crime Rates


Average Local Climate by month


(mm)
RAIN
Min (°C)
TEMP
Max (°C)
TEMP
Min (%)
HUMIDITY
Max (%)
HUMIDITY
(m/sec)
WIND
(MJ/sq m)
SOLAR
Jan2.520.327.652.485.5023.2
Feb4.320.127.054.286.5019.6
Mar6.518.925.954.587.3015.9
Apr5.915.323.551.489.0013.9
May2.612.321.247.584.4011.4
Jun4.610.318.550.385.409.1
Jul2.69.018.243.782.1010.4
Aug2.69.719.739.480.2013.1
Sept1.412.522.437.080.2017.8
Oct2.215.023.742.782.8021.1
Nov3.417.125.349.285.2023.4
Dec2.118.726.449.284.8024.4

source: Australian Government Bureau of Meteorology

Recently Sold Properties / House Prices

03-06-2022 $1,300,000 202 / 2 DIND ST MILSONS POINT 2061
31-05-2022 $900,000 87 / 48 ALFRED ST S MILSONS POINT 2061
31-05-2022 $2,850,000 503 / 30 ALFRED ST S MILSONS POINT 2061
30-05-2022 $4,100,000 153 / 48 ALFRED ST S MILSONS POINT 2061
25-05-2022 $1,030,000 106 / 55 LAVENDER ST MILSONS POINT 2061
16-05-2022 $3,210,000 806 / 30 ALFRED ST S MILSONS POINT 2061
12-05-2022 $2,100,000 1202 / 37 GLEN ST MILSONS POINT 2061
06-05-2022 $2,880,000 1203 / 88 ALFRED ST S MILSONS POINT 2061
28-04-2022 $835,000 608 / 80 ALFRED ST S MILSONS POINT 2061
26-04-2022 $1,710,000 1408 / 30 GLEN ST MILSONS POINT 2061
21-04-2022 $835,000 708 / 80 ALFRED ST S MILSONS POINT 2061
19-04-2022 $1,200,000 504 / 118 ALFRED ST S MILSONS POINT 2061
19-04-2022 $945,000 1710 / 30 GLEN ST MILSONS POINT 2061
04-04-2022 $1,790,000 709 / 80 ALFRED ST S MILSONS POINT 2061
28-03-2022 $2,515,000 508 / 30 ALFRED ST S MILSONS POINT 2061
25-03-2022 $2,550,000 607 / 30 ALFRED ST S MILSONS POINT 2061
24-03-2022 $850,000 205 / 30 ALFRED ST S MILSONS POINT 2061
08-02-2022 $2,400,000 1605 / 80 ALFRED ST S MILSONS POINT 2061
07-02-2022 $1,880,000 1501 / 37 GLEN ST MILSONS POINT 2061
07-02-2022 $4,925,000 2202 / 2 DIND ST MILSONS POINT 2061
31-01-2022 $918,800 1610 / 30 GLEN ST MILSONS POINT 2061
27-01-2022 $2,805,000 101 / 80 ALFRED ST S MILSONS POINT 2061
25-01-2022 $4,500,000 24 ALFRED ST S MILSONS POINT 2061
21-01-2022 $1,480,000 902 / 80 ALFRED ST S MILSONS POINT 2061
20-01-2022 $2,039,000 1105 / 2 DIND ST MILSONS POINT 2061
19-01-2022 $3,625,000 77 / 94 ALFRED ST S MILSONS POINT 2061
18-01-2022 $1,760,000 36 / 94 ALFRED ST S MILSONS POINT 2061
18-01-2022 $5,180,000 302 / 55 LAVENDER ST MILSONS POINT 2061
13-01-2022 $1,900,000 1706 / 30 GLEN ST MILSONS POINT 2061
11-01-2022 $1,870,000 1701 / 37 GLEN ST MILSONS POINT 2061
11-01-2022 $980,000 56 / 48 ALFRED ST S MILSONS POINT 2061
17-12-2021 $7,500,000 401 / 20 ALFRED ST S MILSONS POINT 2061
13-12-2021 $970,000 102 / 30 ALFRED ST S MILSONS POINT 2061
22-11-2021 $530,000 1 / 98 ALFRED ST S MILSONS POINT 2061
19-11-2021 $879,000 15 / 98 ALFRED ST S MILSONS POINT 2061
12-11-2021 $2,625,000 1504 / 38 ALFRED ST S MILSONS POINT 2061
10-11-2021 $2,060,000 2201 / 37 GLEN ST MILSONS POINT 2061
05-11-2021 $7,170,000 1502 / 88 ALFRED ST S MILSONS POINT 2061
01-11-2021 $777,000 1107 / 12 GLEN ST MILSONS POINT 2061
29-10-2021 $1,600,000 1305 / 12 GLEN ST MILSONS POINT 2061
26-10-2021 $1,800,000 901 / 68 ALFRED ST S MILSONS POINT 2061
25-10-2021 $1,720,000 404 / 2 DIND ST MILSONS POINT 2061
18-10-2021 $850,000 7 / 88 ALFRED ST S MILSONS POINT 2061
12-10-2021 $2,180,000 902 / 8 GLEN ST MILSONS POINT 2061
06-10-2021 $2,584,000 307 / 30 ALFRED ST S MILSONS POINT 2061
06-10-2021 $2,270,000 103 / 8 GLEN ST MILSONS POINT 2061
06-10-2021 $2,584,000 307 / 30 ALFRED ST S MILSONS POINT 2061
06-10-2021 $2,270,000 103 / 8 GLEN ST MILSONS POINT 2061
01-10-2021 $5,000,000 151 / 48 ALFRED ST S MILSONS POINT 2061
01-10-2021 $1,150,000 137 / 48 ALFRED ST S MILSONS POINT 2061

Internet Speed

  • Fibre to the Basement (vectored or non-vectored)
  • Fibre to the Curb
  • Fibre to the Premises
  • Hybrid Fibre Coaxial (HFC)
  • Satellite

Residz covers 12m+ Australian properties and brings together a wealth of data to give you a better understanding of an area. From crime and schools to bush fire, flood risk and more. Begin your search for properties for sale or learn more about where you currently reside. Residz is an exciting next-generation Real Estate platform getting better by the day!